STARLINK-35914, 66532

Orbit data source: Space-Track

STARLINK-35914, 66532 is a payload satellite owned by SpaceX/Seattle (US) in LEO that was launched on Wed, 19 Nov 2025 UTC via an FALCON 9 launch vehicle from the Air Force Eastern Test Range (AFETR). Payload-class satellites include a variety of spacecraft equipped with specific instruments for various scientific and technological missions. These include communications satellites like Starlink; space stations such as the ISS; scientific satellites like the Hubble; Earth observation satellites from companies like Planet Labs, Umbra, and HawkEye 360; GPS; miniature CubeSats for education and research; and military/defense satellites.

Loading next visibility...
Identifier
66532, 2025-265S
Orbit
LEO
Country
Flag of USUS
Related business
Manufacturer
SpaceX/Seattle
Mission
Operational Commercial Communications
Bus & Motor
STARLINK V2MO, Unknown motor
Mass
575 kg wet, ~530 kg dry
Launch date (UTC)
2025-11-19 (7 months ago)
Launch vehicle
FALCON 9
Launch site
Air Force Eastern Test Range (AFETR)
Object type
Payload
Rocket body
Debris
Shape & HBR
Box + 2 Pan, 17.7 m
Radar Cross Section
36.964 m², Large (>1 m²)

Expand to show TLE details & history
Last TLE update: 18 hours ago

TLE from 18 hours ago
0 STARLINK-35914
1 66532U 25265S   26171.09832957  .00011120  00000-0  41275-3 0  9999
2 66532  43.0011  59.7467 0001568 262.1125  97.9549 15.27599111 32773
Epoch: 2026-06-20T02:21Z
TLE epoch observation values (Epoch: 2026-06-20T02:21:35.674Z)
Latitude
-0.00001°
Longitude
116.03021°
Altitude
482.916 km
Speed
7.626 km/s
True Right ascension
03h 58m 59s
True Declination
0° 00' 00"
Sunlit
Object was in daylight at epoch
Visualization orbit readout
Latitude
Unknown
Longitude
Unknown
Altitude
Unknown
Speed
Unknown
Apparent Right ascension
Unknown
Apparent Declination
Unknown
Sunlit
N/A
Visualization observer readout
Local Sidereal Time
07:12:55
Azimuth
Unknown
Elevation
Unknown
Doppler factor
Unknown
Orbital elements
Apogee altitude
486.013 km
Perigee altitude
483.861 km
Semi-major axis
6,863.074 km
Eccentricity
0.00016
Inclination
43.0011°
RAAN
59.7467°
Arg. of periapsis
262.1125°
True anomaly
97.97269°
Mean anomaly
97.9549°
Eccentric anomaly
97.9638°
Mean motion
3.81738 °/min
Orbital period
94.31 mins
BSTAR
0.00041275
Loading maneuver chart data...
Computing Atmospheric mass density...
Loading historical data...
Loading historical data...
Loading historical data...
Loading historical data...
Loading historical data...
Loading historical data...
Loading historical data...

Documentation

Showing up to 5 results
|